Location: Houhaj�rvi
(61.2667°N, 23.0167°E)
Time: 19:53:14
(UTC+00:00)

CZ-4B R/B - Pass Details

Date: 13 December 2019
Orbit: 809 x 881 km, 99.1° (Epoch: 17 January)

Event Time Altitude Azimuth Distance (km) Brightness Sun altitude
Rises 14:35:20 0° 159° (SSE) 3,353 6.5 -8.4°
Reaches altitude 10° 14:37:39 10° 160° (SSE) 2,432 5.8 -8.6°
Maximum altitude 14:43:03 86° 249° (WSW) 851 3.3 -9.2°
Drops below altitude 10° 14:48:37 10° 340° (NNW) 2,495 5.5 -9.8°
Sets 14:51:01 0° 341° (NNW) 3,445 6.3 -10.0°
